Location: Unspecified
(0.0000°N, 0.0000°E)
Time: 18:27:33
(UTC+00:00)

S-56A Canister/Altair - All Passes

Search period start: 18 April 2019 00:00
Search period end: 28 April 2019 00:00
Orbit: 633 x 2500 km, 38.9° (Epoch: 17 April)

Date Brightness Start Highest point End Pass type
(mag) Time Alt. Az. Time Alt. Az. Time Alt. Az.
18 Apr - 06:47:38 10° SSW 06:59:31 41° SE 07:13:13 10° ENE daylight
18 Apr - 08:51:59 10° SW 09:06:23 75° NW 09:21:01 10° NE daylight
18 Apr - 11:02:16 10° W 11:13:42 26° NW 11:24:05 10° NNE daylight
18 Apr - 19:44:01 10° NNW 19:48:44 37° NE 19:52:51 10° ESE visible
18 Apr - 21:49:29 10° WSW 21:52:20 16° SW 21:55:17 10° S night (unlit)
19 Apr - 06:15:04 10° SSW 06:26:00 35° SE 06:39:00 10° ENE daylight
19 Apr - 08:18:42 10° SW 08:32:43 83° NW 08:47:44 10° NE daylight
19 Apr - 10:27:48 10° W 10:40:04 30° NW 10:51:31 10° NNE daylight
19 Apr - 19:11:25 10° NNW 19:16:09 30° NE 19:20:07 10° E visible
19 Apr - 21:16:15 10° W 21:19:45 21° SW 21:23:14 10° S visible
20 Apr - 05:42:39 10° SSW 05:52:33 30° SE 06:04:32 10° E daylight
20 Apr - 07:45:35 10° SW 07:59:04 88° SE 08:14:20 10° NE daylight
20 Apr - 09:53:36 10° W 10:06:22 35° NW 10:18:46 10° NNE daylight
20 Apr - 18:38:48 10° NNW 18:43:30 25° NE 18:47:22 10° E visible
20 Apr - 20:43:07 10° WNW 20:47:13 28° SW 20:51:06 10° SSE visible
21 Apr - 05:10:25 10° S 05:19:10 25° SE 05:29:49 10° E visible
21 Apr - 07:12:36 10° SW 07:25:29 79° SE 07:40:46 10° NE daylight
21 Apr - 09:19:40 10° WSW 09:32:41 39° NW 09:45:52 10° NNE daylight
21 Apr - 11:37:56 10° NW 11:41:32 11° NNW 11:45:00 10° NNW daylight
21 Apr - 18:06:08 10° NNW 18:10:46 21° NNE 18:14:32 10° E daylight
21 Apr - 20:10:01 10° WNW 20:14:45 39° SW 20:18:53 10° SSE visible
22 Apr - 04:38:25 10° S 04:45:51 20° SE 04:54:48 10° E visible
22 Apr - 06:39:45 10° SW 06:51:56 70° SE 07:07:04 10° NE daylight
22 Apr - 08:45:56 10° WSW 08:58:59 45° NW 09:12:50 10° NNE daylight
22 Apr - 11:01:15 10° WNW 11:07:42 14° NNW 11:13:53 10° N daylight
22 Apr - 17:33:27 10° N 17:37:58 18° NNE 17:41:38 10° ENE daylight
22 Apr - 19:36:57 10° WNW 19:42:16 53° SW 19:46:38 10° SE visible
23 Apr - 04:06:47 10° S 04:12:35 16° SE 04:19:22 10° ESE visible
23 Apr - 06:07:03 10° SW 06:18:29 62° SE 06:33:13 10° ENE daylight
23 Apr - 08:12:25 10° WSW 08:25:17 50° NW 08:39:41 10° NNE daylight
23 Apr - 10:25:41 10° WNW 10:33:52 16° NNW 10:41:48 10° N daylight
23 Apr - 17:00:44 10° N 17:05:04 16° NNE 17:08:39 10° ENE daylight
23 Apr - 19:03:53 10° NW 19:09:47 72° SW 19:14:21 10° SE visible
24 Apr - 03:35:59 10° SSE 03:39:21 12° SE 03:43:04 10° ESE visible
24 Apr - 05:34:27 10° SSW 05:45:07 54° SE 05:59:13 10° ENE visible
24 Apr - 07:39:04 10° WSW 07:51:37 56° NW 08:06:23 10° NE daylight
24 Apr - 09:50:41 10° WNW 10:00:02 19° NNW 10:09:20 10° N daylight
24 Apr - 16:27:58 10° N 16:32:06 15° NNE 16:35:33 10° ENE daylight
24 Apr - 18:30:47 10° NW 18:37:16 87° NE 18:42:01 10° SE visible
25 Apr - 05:01:59 10° SSW 05:11:50 46° SE 05:25:05 10° ENE visible
25 Apr - 07:05:54 10° WSW 07:18:00 63° NW 07:32:59 10° NE daylight
25 Apr - 09:16:05 10° WNW 09:26:12 22° NNW 09:36:38 10° NNE daylight
25 Apr - 15:55:11 10° N 15:59:02 14° NNE 16:02:20 10° NE daylight
25 Apr - 17:57:40 10° NW 18:04:40 69° NE 18:09:38 10° ESE daylight
25 Apr - 20:06:43 10° WSW 20:08:04 11° SW 20:09:22 10° SSW visible
26 Apr - 04:29:40 10° SSW 04:38:39 38° SE 04:50:48 10° ENE visible
26 Apr - 06:32:54 10° WSW 06:44:27 70° NW 06:59:28 10° NE daylight
26 Apr - 08:41:50 10° W 08:52:24 25° NNW 09:03:43 10° NNE daylight
26 Apr - 15:22:23 10° N 15:25:53 12° NNE 15:28:57 10° NE daylight
26 Apr - 17:24:30 10° NW 17:32:00 56° NE 17:37:11 10° ESE daylight
26 Apr - 19:32:12 10° W 19:35:29 16° SW 19:38:24 10° S visible
27 Apr - 03:57:29 10° SSW 04:05:31 31° SE 04:16:21 10° ENE visible
27 Apr - 06:00:01 10° SW 06:10:58 79° NW 06:25:51 10° NE daylight
27 Apr - 08:07:53 10° W 08:18:38 28° NW 08:30:40 10° NNE daylight
27 Apr - 14:49:36 10° N 14:52:38 12° NNE 14:55:22 10° NE daylight
27 Apr - 16:51:18 10° NW 16:59:15 47° NE 17:04:41 10° ESE daylight
27 Apr - 18:58:18 10° W 19:02:57 22° SW 19:06:45 10° S visible
